Location: Bastelaar
(51.0950°N, 3.8602°E)
Time: 06:43:25
(UTC+00:00)

Cosmos 1943 Rocket - Pass Details

Date: 18 November 2025
Orbit: 812 x 841 km, 71.0° (Epoch: 12 December)

Event Time Altitude Azimuth Distance (km) Brightness Sun altitude
Rises 17:22:24 0° 201° (SSW) 3,372 5.8 -13.8°
Reaches altitude 10° 17:24:50 10° 199° (SSW) 2,438 5.0 -14.2°
Maximum altitude 17:30:24 73° 116° (ESE) 871 2.1 -15.1°
Enters shadow 17:35:22 13° 34° (NNE) 2,207 4.0 -15.8°
